Date String (YYYY-MM-DD hh:mm:ss) UTC,Instrument flags,Ambient pressure (hPa),Sample flow (lpm),Bypass flow (lpm),Sample temperature (°C),Ambient temperature (°C),ASC tube jacket temperature (°C),LED temperature (°C),Box temperature (°C),Sample RH (%),Span deviation,Mass concentration (μg/m³),Mass concentration (μg/m³),Mass concentration (μg/m³)
DateTimeUTC,F1_M11,P_M11,Q1_M11,Q2_M11,T1_M11,T2_M11,T3_M11,T4_M11,T5_M11,U1_M11,ZSPAN_M11,X0_M11,X2_M11,X1_M11
2022-03-21 16:00:00,,0825.5,5.00,0.00,20.6,19.7,00.0,29.9,22.0,19.5,0000.0,0007.87,0003.36,0002.37
2022-03-21 16:01:00,,0825.5,5.00,0.00,20.5,19.7,00.0,29.8,22.0,19.6,0000.0,0007.84,0003.34,0002.36
2022-03-21 16:02:00,,0825.5,5.00,0.00,20.5,20.1,00.0,29.8,22.1,19.6,0000.0,0007.87,0003.33,0002.36
2022-03-21 16:03:00,,0825.5,5.01,0.00,20.7,21.3,00.0,29.9,22.5,19.4,0000.0,0007.86,0003.34,0002.36
2022-03-21 16:04:00,,0825.5,4.99,0.00,20.9,22.3,00.0,29.9,22.9,19.3,0000.0,0007.99,0003.40,0002.38
2022-03-21 16:05:00,,0825.5,5.00,0.00,21.0,22.2,00.0,29.9,22.9,19.1,0000.0,0007.98,0003.43,0002.39
2022-03-21 16:06:00,,0825.5,5.01,0.00,21.0,21.8,00.0,30.0,22.8,19.0,0000.0,0007.95,0003.44,0002.39
2022-03-21 16:07:00,,0825.5,5.00,0.00,20.9,21.4,00.0,30.0,22.6,19.1,0000.0,0007.94,0003.44,0002.39
2022-03-21 16:08:00,,0825.5,5.00,0.00,20.9,21.0,00.0,29.9,22.5,19.1,0000.0,0007.93,0003.42,0002.40
2022-03-21 16:09:00,,0825.5,5.01,0.00,20.8,20.6,00.0,29.9,22.4,19.1,0000.0,0007.98,0003.43,0002.40
2022-03-21 16:10:00,,0825.5,4.99,0.00,20.8,20.4,00.0,29.9,22.3,19.3,0000.0,0007.05,0003.45,0002.41
2022-03-21 16:11:00,,0825.5,5.00,0.00,20.7,20.1,00.0,29.9,22.2,19.4,0000.0,0006.87,0003.43,0002.42
2022-03-21 16:12:00,,0825.5,5.00,0.00,20.6,19.9,00.0,29.9,22.1,19.4,0000.0,0007.23,0003.49,0002.43
2022-03-21 16:13:00,,0825.5,5.00,0.00,20.6,19.8,00.0,29.9,22.1,19.5,0000.0,0007.45,0003.52,0002.43
2022-03-21 16:14:00,,0825.5,5.00,0.00,20.5,19.7,00.0,29.8,22.0,19.5,0000.0,0007.64,0003.55,0002.44
2022-03-21 16:15:00,,0825.5,4.99,0.00,20.5,19.6,00.0,29.8,21.9,19.7,0000.0,0007.91,0003.55,0002.44
2022-03-21 16:16:00,,0825.5,5.00,0.00,20.5,20.2,00.0,29.8,22.1,19.6,0000.0,0007.94,0003.54,0002.46
2022-03-21 16:17:00,,0825.6,5.01,0.00,20.7,21.5,00.0,29.8,22.5,19.5,0000.0,0008.02,0003.55,0002.47
2022-03-21 16:18:00,,0825.6,4.99,0.00,20.9,22.5,00.0,29.9,22.9,19.2,0000.0,0007.96,0003.54,0002.49
2022-03-21 16:19:00,,0825.5,4.99,0.00,21.0,22.4,00.0,29.9,23.0,19.2,0000.0,0008.09,0003.57,0002.51
2022-03-21 16:20:00,,0825.5,5.01,0.00,21.0,21.8,00.0,29.9,22.8,19.2,0000.0,0008.06,0003.55,0002.51
2022-03-21 16:21:00,,0825.5,5.00,0.00,21.0,21.3,00.0,29.9,22.6,19.2,0000.0,0008.17,0003.56,0002.51
2022-03-21 16:22:00,,0825.5,5.01,0.00,20.9,20.8,00.0,29.9,22.5,19.3,0000.0,0007.99,0003.56,0002.52
2022-03-21 16:23:00,,0825.6,5.00,0.00,20.9,20.6,00.0,29.9,22.5,19.4,0000.0,0007.93,0003.56,0002.54
2022-03-21 16:24:00,,0825.6,5.00,0.00,20.8,20.4,00.0,29.9,22.4,19.5,0000.0,0007.84,0003.57,0002.57
2022-03-21 16:25:00,,0825.7,4.99,0.00,20.8,20.2,00.0,29.9,22.3,19.6,0000.0,0007.69,0003.58,0002.60
2022-03-21 16:26:00,,0825.6,5.00,0.00,20.7,20.1,00.0,29.9,22.3,19.7,0000.0,0007.46,0003.61,0002.61
2022-03-21 16:27:00,,0825.6,5.00,0.00,20.7,20.0,00.0,29.9,22.2,19.8,0000.0,0007.56,0003.66,0002.63
2022-03-21 16:28:00,,0825.6,5.01,0.00,20.7,19.9,00.0,29.9,22.2,19.8,0000.0,0007.54,0003.68,0002.63
2022-03-21 16:29:00,,0825.6,5.00,0.00,20.6,19.8,00.0,29.8,22.1,19.8,0000.0,0007.71,0003.73,0002.64
2022-03-21 16:30:00,,0825.6,5.00,0.00,20.5,19.7,00.0,29.8,22.0,19.8,0000.0,0007.62,0003.70,0002.65
2022-03-21 16:31:00,,0825.6,5.01,0.00,20.5,19.7,00.0,29.8,22.0,20.0,0000.0,0007.63,0003.73,0002.68
2022-03-21 16:32:00,,0825.6,4.99,0.00,20.5,20.3,00.0,29.8,22.1,20.0,0000.0,0007.52,0003.73,0002.70
2022-03-21 16:33:00,,0825.7,5.01,0.00,20.7,21.5,00.0,29.8,22.6,20.2,0000.0,0007.68,0003.71,0002.72
2022-03-21 16:34:00,,0825.7,4.99,0.00,20.9,22.5,00.0,29.9,22.9,20.0,0000.0,0008.24,0003.69,0002.74
2022-03-21 16:35:00,,0825.7,5.00,0.00,21.0,22.4,00.0,29.9,23.0,19.9,0000.0,0008.36,0003.70,0002.76
2022-03-21 16:36:00,,0825.6,5.01,0.00,21.1,22.0,00.0,29.9,22.9,19.9,0000.0,0008.32,0003.68,0002.77
2022-03-21 16:37:00,,0825.7,5.00,0.00,21.0,21.6,00.0,29.9,22.8,20.0,0000.0,0008.27,0003.65,0002.79
2022-03-21 16:38:00,,0825.7,4.99,0.00,21.0,21.2,00.0,29.9,22.7,19.8,0000.0,0008.24,0003.65,0002.81
2022-03-21 16:39:00,,0825.7,5.01,0.00,20.9,20.9,00.0,29.9,22.5,19.9,0000.0,0008.24,0003.67,0002.85
2022-03-21 16:40:00,,0825.7,4.98,0.00,20.9,20.6,00.0,29.9,22.5,20.0,0000.0,0008.20,0003.68,0002.90
2022-03-21 16:41:00,,0825.7,5.00,0.00,20.8,20.4,00.0,29.9,22.4,20.0,0000.0,0008.14,0003.71,0002.97
2022-03-21 16:42:00,,0825.6,5.00,0.00,20.8,20.2,00.0,29.9,22.3,20.0,0000.0,0008.36,0003.73,0003.05
2022-03-21 16:43:00,,0825.7,5.00,0.00,20.7,20.1,00.0,29.9,22.2,20.2,0000.0,0008.43,0003.78,0003.12
2022-03-21 16:44:00,,0825.6,5.00,0.00,20.7,20.0,00.0,29.9,22.2,20.3,0000.0,0008.51,0003.89,0003.16
2022-03-21 16:45:00,,0825.7,5.00,0.00,20.6,19.8,00.0,29.8,22.1,20.3,0000.0,0008.07,0003.98,0003.21
2022-03-21 16:46:00,,0825.6,4.99,0.00,20.6,19.7,00.0,29.8,22.0,20.3,0000.0,0007.99,0004.04,0003.25
2022-03-21 16:47:00,,0825.7,5.00,0.00,20.5,19.6,00.0,29.8,22.0,20.5,0000.0,0008.23,0004.07,0003.30
2022-03-21 16:48:00,,0825.7,4.99,0.00,20.5,20.3,00.0,29.8,22.1,20.5,0000.0,0008.64,0004.13,0003.36
2022-03-21 16:49:00,,0825.7,5.01,0.00,20.7,21.5,00.0,29.8,22.6,20.4,0000.0,0008.62,0004.16,0003.39
2022-03-21 16:50:00,,0825.8,4.99,0.00,20.9,22.6,00.0,29.9,22.9,20.2,0000.0,0008.75,0004.21,0003.44
2022-03-21 16:51:00,,0825.7,5.00,0.00,21.1,22.4,00.0,29.9,23.0,20.1,0000.0,0008.78,0004.23,0003.47
2022-03-21 16:52:00,,0825.7,5.01,0.00,21.0,21.9,00.0,29.9,22.9,20.0,0000.0,0009.16,0004.30,0003.49
2022-03-21 16:53:00,,0825.7,5.00,0.00,21.0,21.5,00.0,29.9,22.7,19.6,0000.0,0009.51,0004.29,0003.49
2022-03-21 16:54:00,,0825.7,4.99,0.00,20.9,21.0,00.0,29.9,22.5,19.5,0000.0,0009.41,0004.32,0003.50
2022-03-21 16:55:00,,0825.6,5.01,0.00,20.9,20.7,00.0,29.9,22.4,19.6,0000.0,0009.25,0004.27,0003.51
2022-03-21 16:56:00,,0825.6,5.01,0.00,20.8,20.4,00.0,29.9,22.3,19.7,0000.0,0009.06,0004.23,0003.51
2022-03-21 16:57:00,,0825.6,4.98,0.00,20.7,20.1,00.0,29.9,22.3,19.9,0000.0,0009.02,0004.20,0003.49
2022-03-21 16:58:00,,0825.6,5.01,0.00,20.7,19.9,00.0,29.9,22.2,20.1,0000.0,0008.88,0004.18,0003.48
2022-03-21 16:59:00,,0825.6,4.99,0.00,20.7,19.9,00.0,29.9,22.2,20.2,0000.0,0008.57,0004.17,0003.47
